INTELSAT 903 (IS-903) (27403 NORAD) Tracking and Keplerian Element Data

This shows tracking and keplerian element data for the satellite.

Feedback or suggestion? Click here.




ElementValue
Catalog27403
NameINTELSAT 903 (IS-903)
Epoch Orbit6116
Epoch Day349.45140635
Epoch Year2018
RAAN92.9246
Inclination1.0271
Eccentricity5.18E-05
Argument of Perigee160.6951
Mean Anonmoly321.4542
Mean Motion1.00272335
Decay Rate-2.11E-06
L11 27403U 02016A 18349.45140635 -.00000211 00000-0 00000+0 0 9992
L22 27403 1.0271 92.9246 0000518 160.6951 321.4542 1.00272335 61161

Live tracking and technical data element details for INTELSAT 903 (IS-903) (NORAD 27403). INTELSAT 903 (IS-903) can be tracked NOW for your location showing map with azimuth and elevation plus other details from your city location.

Track the satellite on the map from your city or location and see movement details for azimuth, elevation, latitude, longitude, range, height, and movement on the map or in text.







IsCatalogInMostPopularTable: catalog: 27403, numindb: 78
Update: records affected: 1



GetName: 27403 INTELSAT 903 (IS-903)

Hit Count: updated at: Sun, 16 Dec 2018 10:32:33 GMT